EW8359 Weather Reports


time (UTC)temp
C
wind
direction
speed
KPH
gust
KPH
rain 1hr
cm
rain 24hr
cm
rain mn
cm
humidity
%
barometer
mb
20260507094545 7 215 0.0 6.4 0.00 1.91 0.00 92 1004.7
20260507093042 7 221 0.0 0.0 0.00 1.91 0.00 92 1004.7
20260507091543 8 278 0.0 1.6 0.00 1.91 0.00 91 1004.4
20260507090041 8 302 0.0 3.2 0.00 1.91 0.00 91 1004.0
20260507084550 8 313 0.0 1.6 0.00 1.91 0.00 91 1004.6
20260507083036 8 234 0.0 3.2 0.00 1.91 0.00 91 1004.1
20260507081534 8 198 0.0 4.8 0.00 1.91 0.00 91 1004.6
20260507080032 8 283 0.0 8.0 0.00 1.91 0.00 91 1003.7
20260507074532 8 232 0.0 6.4 0.00 1.91 0.00 91 1004.1
20260507073029 8 278 0.0 4.8 0.00 1.91 0.00 91 1003.8
20260507071529 8 273 1.6 14.5 0.00 1.91 0.00 91 1003.8
20260507070025 8 220 0.0 6.4 0.00 1.91 0.00 92 1003.6
20260507064522 8 227 0.0 8.0 0.00 1.91 0.00 92 1003.7
20260507063017 9 126 0.0 6.4 0.00 1.91 0.00 92 1003.4
20260507061514 9 211 0.0 8.0 0.00 1.91 0.00 93 1003.3
20260507060020 10 198 0.0 0.0 0.00 1.91 0.00 93 1003.2
20260507054510 10 198 0.0 3.2 0.00 1.91 0.00 92 1003.1
20260507053008 10 194 0.0 3.2 0.00 1.91 0.00 92 1003.1
20260507051507 10 342 0.0 11.3 0.00 1.91 0.00 92 1002.6
20260507050013 10 217 0.0 9.7 0.00 1.91 0.00 92 1002.9
20260507044502 10 211 1.6 12.9 0.05 1.91 0.00 92 1002.8
20260507043058 10 204 3.2 12.9 0.10 1.91 0.00 91 1002.3
20260507041555 11 246 4.8 16.1 0.10 1.91 0.00 92 1002.2
20260507040056 11 259 0.0 16.1 0.13 1.91 0.00 92 1002.2
20260507034549 12 188 4.8 20.9 0.08 1.85 1.85 90 1002.2
20260507033047 12 234 1.6 11.3 0.03 1.80 1.80 91 1002.5
20260507031544 13 280 3.2 11.3 0.05 1.80 1.80 92 1002.2
20260507030045 13 231 0.0 6.4 0.03 1.78 1.78 92 1002.0
20260507024547 13 242 3.2 12.9 0.03 1.78 1.78 92 1002.1
20260507023042 14 277 4.8 11.3 0.03 1.78 1.78 92 1002.2
20260507021554 15 198 0.0 8.0 0.00 1.75 1.75 94 1002.0
20260507020042 15 142 1.6 8.0 0.00 1.75 1.75 94 1002.0
20260507014541 15 169 3.2 14.5 0.03 1.75 1.75 94 1002.1
20260507013040 15 149 0.0 16.1 0.03 1.75 1.75 93 1002.2
20260507011543 15 223 3.2 12.9 0.03 1.75 1.75 93 1002.2
20260507010044 15 231 0.0 11.3 0.03 1.75 1.75 94 1002.2
20260507004540 15 200 0.0 6.4 0.00 1.73 1.73 94 1002.2
20260507003037 15 153 0.0 8.0 0.00 1.73 1.73 93 1002.2
20260507001537 15 137 4.8 14.5 0.00 1.73 1.73 93 1002.1
20260507000037 15 144 0.0 8.0 0.00 1.73 1.73 93 1001.9
20260506234538 15 136 1.6 14.5 0.00 1.73 1.73 93 1002.0
20260506233033 15 150 3.2 17.7 0.00 1.73 1.73 94 1002.1
20260506231531 15 267 0.0 22.5 0.00 1.73 1.73 94 1002.2
20260506230034 15 159 3.2 11.3 0.00 1.73 1.73 94 1002.3
20260506224531 15 225 3.2 12.9 0.00 1.73 1.73 94 1002.3
20260506223030 15 169 1.6 14.5 0.03 1.73 1.73 95 1002.4
20260506221529 15 144 4.8 14.5 0.05 1.73 1.73 95 1002.3
20260506220034 15 140 0.0 11.3 0.10 1.73 1.73 95 1002.5
20260506214526 15 222 1.6 12.9 0.13 1.73 1.73 94 1002.6
20260506213029 15 159 0.0 12.9 0.18 1.70 1.70 94 1002.7
20260506211527 15 151 0.0 8.0 0.28 1.68 1.68 94 1002.9
20260506210028 15 155 1.6 9.7 0.28 1.63 1.63 94 1003.2
20260506204526 15 128 3.2 12.9 0.28 1.60 1.60 94 1003.1
20260506203027 15 138 0.0 11.3 0.20 1.50 1.50 93 1003.2
20260506201521 16 158 0.0 0.0 0.15 1.37 1.37 93 1003.2
20260506200018 16 151 0.0 12.9 0.28 1.35 1.35 93 1003.2
20260506194517 16 162 0.0 9.7 0.36 1.32 1.32 93 1003.4
20260506193017 16 153 0.0 0.0 0.71 1.30 1.30 92 1003.7
20260506191515 16 171 0.0 3.2 1.02 1.22 1.22 92 1003.9
20260506190011 16 161 0.0 11.3 1.04 1.07 1.07 91 1003.9
20260506184508 16 139 0.0 4.8 0.97 0.97 0.97 89 1004.2
20260506183007 16 201 0.0 3.2 0.58 0.58 0.58 86 1004.3
20260506181506 17 227 0.0 3.2 0.20 0.20 0.20 80 1003.8
20260506180007 19 198 0.0 11.3 0.00 0.00 0.00 72 1003.6
20260506174503 20 180 0.0 17.7 0.00 0.00 0.00 65 1003.4
20260506173002 20 135 0.0 8.0 0.00 0.00 0.00 64 1003.5
20260506171602 21 235 0.0 17.7 0.00 0.00 0.00 64 1003.7
20260506170100 21 86 0.0 9.7 0.00 0.00 0.00 64 1003.8
20260506164558 21 222 3.2 14.5 0.00 0.00 0.00 63 1004.2
20260506163054 20 175 1.6 20.9 0.00 0.00 0.00 65 1004.6
20260506161557 20 213 0.0 24.1 0.00 0.00 0.00 66 1005.1
20260506160047 20 261 3.2 17.7 0.00 0.00 0.00 66 1005.6
20260506154546 20 265 3.2 14.5 0.00 0.00 0.00 67 1005.7
20260506153045 20 118 0.0 14.5 0.00 0.00 0.00 69 1005.8
20260506151600 20 223 0.0 11.3 0.00 0.00 0.00 68 1005.7
20260506150040 19 228 0.0 12.9 0.00 0.00 0.00 70 1005.7
20260506144537 18 252 0.0 17.7 0.00 0.00 0.00 72 1005.7
20260506143044 18 117 0.0 3.2 0.00 0.00 0.00 73 1005.6
20260506141532 18 197 0.0 12.9 0.00 0.00 0.00 72 1005.6
20260506140035 18 216 0.0 4.8 0.00 0.00 0.00 73 1005.7
20260506134528 17 140 0.0 14.5 0.00 0.00 0.00 73 1006.2
20260506133026 17 129 0.0 6.4 0.00 0.00 0.00 74 1006.1
20260506131528 17 164 0.0 8.0 0.00 0.00 0.00 73 1006.2
20260506130024 17 73 0.0 1.6 0.00 0.00 0.00 74 1006.1
20260506124522 17 257 0.0 0.0 0.00 0.00 0.00 75 1006.1
20260506123022 17 128 0.0 12.9 0.00 0.00 0.00 74 1006.3
20260506121518 16 190 1.6 19.3 0.00 0.00 0.00 76 1006.1
20260506120015 16 138 0.0 9.7 0.00 0.00 0.00 78 1006.5
20260506114519 16 165 1.6 14.5 0.00 0.00 0.00 78 1006.4
20260506113013 15 235 0.0 0.0 0.00 0.00 0.00 79 1006.7
20260506111510 15 228 0.0 6.4 0.00 0.00 0.00 79 1007.0
20260506110009 15 208 0.0 8.0 0.00 0.00 0.00 79 1006.7
20260506104506 15 167 0.0 14.5 0.00 0.00 0.00 80 1006.8
20260506103010 13 188 0.0 8.0 0.00 0.00 0.00 83 1006.8
20260506101504 12 162 0.0 0.0 0.00 0.00 0.00 85 1006.3
20260506100002 12 118 0.0 0.0 0.00 0.00 0.00 85 1006.7